Flag for Italy Weather past 2 weeks in Firenze, Italy

Now
66 °F

Scattered clouds.


Feels Like: 66 °F
Forecast: 50 / 57 °F
Wind: 14 mph from Southwest

Location: Florence / Peretola


UV Index: 0 (Low)

Visibility: N/A


Pressure: 29.74 "Hg

Humidity: 52%

Dew point: 48 °F

Location of FirenzeLocation

Historic Weather in Firenze

°F

Firenze temperature yesterday

Maximum temperature yesterday: 66 °F (at 2:20 PM)
Minimum temperature yesterday: 39 °F (at 4:50 AM)
Average temperature yesterday: 53 °F

Past Weeks' High & Low Weather Summary

 TemperatureHumidityPressure
High79 °F (Apr 7, 2:50 PM)100% (Apr 5, 1:50 AM)30.15 "Hg (Apr 5, 1:50 AM)
Low39 °F (Apr 17, 4:50 AM)21% (Apr 17, 3:20 PM)29.56 "Hg (Apr 4, 5:20 AM)
Average59 °F68%29.97 "Hg
* Reported Apr 3 3:20 PM — Apr 18 3:20 PM, Firenze, Weather by CustomWeather, © 2014

Note: Actual official high and low records may vary slightly from our data, if they occured in-between our weather recording intervals... More about our weather records

Advertising

Historic Weather Conditions — Data for Previous 24 hours

 ConditionsComfort  
Time TempWeatherWind HumidityBarometerVisibility
3:20 PM
Apr 18
68 °FScattered clouds.15 mph49%29.74 "HgN/A
2:50 PM66 °FScattered clouds.7 mph52%29.77 "HgN/A
2:20 PM66 °FPassing clouds.7 mph52%29.77 "HgN/A
1:50 PM66 °FSunny.6 mph52%29.77 "Hg10 mi
1:20 PM64 °FSunny.5 mph56%29.80 "Hg10 mi
12:50 PM64 °FSunny.5 mph52%29.80 "Hg10 mi
12:20 PM63 °FPassing clouds.6 mph59%29.83 "HgN/A
11:50 AM61 °FSunny.3 mph52%29.83 "Hg10 mi
11:20 AM61 °FPassing clouds.3 mph52%29.86 "HgN/A
10:50 AM59 °FSunny.2 mph45%29.86 "Hg10 mi
10:20 AM57 °FSunny.2 mph44%29.86 "Hg10 mi
9:50 AM55 °FSunny.2 mph47%29.86 "Hg10 mi
9:20 AM52 °FSunny.3 mph54%29.86 "Hg10 mi
8:50 AM50 °FPassing clouds.3 mph58%29.89 "HgN/A
8:20 AM48 °FSunny.2 mph66%29.89 "Hg10 mi
7:50 AM46 °FSunny.No wind71%29.89 "Hg10 mi
7:20 AM43 °FClear.3 mph76%29.89 "Hg10 mi
6:50 AM39 °FClear.1 mph81%29.89 "Hg10 mi
6:20 AM41 °FClear.2 mph76%29.89 "Hg10 mi
5:50 AM41 °FClear.1 mph76%29.92 "Hg10 mi
5:20 AM39 °FClear.3 mph81%29.89 "Hg10 mi
4:50 AM41 °FClear.3 mph76%29.92 "Hg10 mi
4:20 AM41 °FClear.2 mph76%29.92 "Hg10 mi
3:20 AM43 °FClear.2 mph71%29.95 "Hg10 mi
2:50 AM41 °FPassing clouds.3 mph76%29.95 "HgN/A
1:50 AM43 °FClear.2 mph71%29.95 "Hg10 mi
1:20 AM45 °FClear.1 mph66%29.98 "Hg10 mi
12:50 AM45 °FClear.No wind76%29.98 "Hg10 mi
12:20 AM46 °FClear.2 mph62%29.98 "Hg10 mi
11:50 PM
Apr 17
46 °FClear.1 mph66%29.98 "Hg10 mi
11:20 PM50 °FClear.2 mph50%29.98 "Hg10 mi
10:50 PM50 °FClear.1 mph47%29.98 "Hg10 mi
10:20 PM52 °FPassing clouds.3 mph44%29.98 "HgN/A
9:50 PM52 °FClear.2 mph47%29.98 "Hg10 mi
9:20 PM50 °FClear.7 mph50%29.98 "Hg10 mi
8:50 PM52 °FSunny.7 mph47%29.95 "Hg10 mi
8:20 PM55 °FSunny.6 mph36%29.95 "Hg10 mi
7:50 PM57 °FSunny.8 mph33%29.95 "Hg10 mi
6:50 PM63 °FPassing clouds.12 mph27%29.95 "HgN/A
6:20 PM64 °FPassing clouds.14 mph26%29.95 "HgN/A
5:50 PM64 °FPassing clouds.9 mph26%29.95 "HgN/A
5:20 PM66 °FPassing clouds.8 mph24%29.95 "HgN/A
4:50 PM66 °FPassing clouds.10 mph24%29.95 "HgN/A
4:20 PM66 °FSunny.13 mph26%29.95 "Hg10 mi
Weather by CustomWeather, © 2014

See weather overview